This is the latest recevied weather packets stored in our database for station/object KM5R. If no packets are shown the sender has not sent any weather packets the latest 1 day(s).
| Time | Temp. | Humidity | Pressure | Rain* | Wind** | Luminosity | Snow |
|---|---|---|---|---|---|---|---|
| 1777994773 | 25° C | 73% | 1008.9 hPa | 0 mm | 3.58 m/s, 150° | 273 W/m² | - |
| 1777994458 | 25° C | 73% | 1009.1 hPa | 0 mm | 1.79 m/s, 141° | 364 W/m² | - |
| 1777994153 | 25° C | 73% | 1009.2 hPa | 0 mm | 3.58 m/s, 163° | 343 W/m² | - |
| 1777993852 | 24.44° C | 74% | 1009.1 hPa | 0 mm | 4.92 m/s, 180° | 360 W/m² | - |
| 1777993547 | 24.44° C | 74% | 1009 hPa | 0 mm | 3.13 m/s, 213° | 377 W/m² | - |
| 1777993244 | 24.44° C | 75% | 1008.9 hPa | 0 mm | 2.24 m/s, 168° | 313 W/m² | - |
| 1777992940 | 23.89° C | 75% | 1009.1 hPa | 0 mm | 3.13 m/s, 174° | 350 W/m² | - |
| 1777992638 | 24.44° C | 74% | 1008.7 hPa | 0 mm | 4.02 m/s, 137° | 357 W/m² | - |
| 1777992336 | 23.89° C | 76% | 1009.1 hPa | 0 mm | 3.58 m/s, 149° | 361 W/m² | - |
| 1777992033 | 23.33° C | 77% | 1009 hPa | 0 mm | 3.58 m/s, 181° | 310 W/m² | - |
| 1777991731 | 23.33° C | 76% | 1009 hPa | 0 mm | 4.92 m/s, 200° | 245 W/m² | - |
| 1777991428 | 23.33° C | 77% | 1009 hPa | 0 mm | 3.58 m/s, 125° | 268 W/m² | - |
| 1777991125 | 22.78° C | 78% | 1008.9 hPa | 0 mm | 2.68 m/s, 190° | 323 W/m² | - |
| 1777990822 | 22.78° C | 78% | 1008.7 hPa | 0 mm | 1.34 m/s, 165° | 229 W/m² | - |
| 1777990520 | 22.78° C | 78% | 1008.8 hPa | 0 mm | 3.13 m/s, 138° | 197 W/m² | - |
| 1777990216 | 22.78° C | 78% | 1008.7 hPa | 0 mm | 2.68 m/s, 33° | 136 W/m² | - |
| 1777989913 | 22.78° C | 79% | 1008.9 hPa | 0 mm | 1.34 m/s, 213° | 233 W/m² | - |
| 1777989610 | 22.22° C | 79% | 1008.9 hPa | 0 mm | 3.58 m/s, 223° | 278 W/m² | - |
| 1777989306 | 22.22° C | 80% | 1008.9 hPa | 0 mm | 3.13 m/s, 166° | 203 W/m² | - |
| 1777989003 | 21.67° C | 81% | 1008.6 hPa | 0 mm | 3.13 m/s, 196° | 149 W/m² | - |
| 1777988699 | 21.67° C | 81% | 1008.7 hPa | 0 mm | 1.34 m/s, 63° | 142 W/m² | - |
| 1777988395 | 21.67° C | 81% | 1008.9 hPa | 0 mm | 2.68 m/s, 143° | 119 W/m² | - |
| 1777988094 | 21.67° C | 81% | 1008.5 hPa | 0 mm | 1.79 m/s, 68° | 115 W/m² | - |
| 1777987794 | 21.67° C | 82% | 1008.7 hPa | 0 mm | 0.89 m/s, 131° | 130 W/m² | - |
| 1777987491 | 21.11° C | 82% | 1008.7 hPa | 0 mm | 1.79 m/s, 146° | 108 W/m² | - |
* Rain latest hour (hover to see other rain measurements)
** Current wind speed in m/s (hover to see current wind gust speed)